Theta_e
298 300 303 308 315 319 340 340 338 339 337 337 334 332 331 330 330 330 331 329 333 336 334 334 337 338 338 338 338 338 337 335 334 333 332 332 336 337 338 338 338 339 339
298 298 300 304 309 316 326 339 337 336 336 336 333 332 330 331 330 329 332 332 332 333 335 332 332 335 336 337 337 338 337 335 333 332 331 331 334 336 336 336 337 337 338
297 297 300 301 305 308 315 335 337 336 336 336 331 331 330 330 330 328 331 331 330 329 333 333 332 332 334 334 336 337 336 334 332 330 330 329 330 334 335 335 335 335 336
297 297 300 302 306 307 312 320 335 334 333 332 330 329 330 329 329 328 328 328 328 326 329 333 334 335 332 333 335 336 335 333 331 329 329 328 330 332 332 333 334 334 334
296 296 297 299 301 302 306 312 332 333 330 330 329 328 329 328 328 328 326 326 327 326 326 328 330 331 334 333 333 336 335 332 330 328 328 329 329 330 329 329 331 332 332
294 295 296 297 299 299 300 307 319 332 331 329 329 326 328 328 329 328 326 324 325 326 329 331 331 329 329 333 334 334 335 332 330 328 328 330 329 329 329 329 329 329 330
292 293 295 295 297 297 297 300 307 328 328 329 325 323 324 327 327 327 327 325 324 327 328 330 329 329 329 329 333 334 335 332 330 329 329 329 331 330 330 330 329 329 332
292 292 294 295 297 298 298 299 303 313 328 328 321 319 315 317 323 324 325 323 322 325 325 326 328 327 326 327 327 329 331 333 331 330 331 330 330 328 329 331 332 333 331
291 291 292 294 295 297 295 297 300 306 323 326 324 319 312 311 317 322 322 322 321 322 323 324 325 325 324 326 327 325 326 329 330 329 332 331 331 329 328 331 330 330 331
289 289 291 292 293 295 294 295 299 303 321 322 323 324 321 320 313 311 317 320 320 320 321 322 321 325 326 325 323 321 322 326 330 329 329 328 330 330 331 329 327 326 326
287 289 290 291 292 294 294 295 296 298 303 323 322 321 320 319 318 314 309 314 319 319 321 321 321 322 326 325 324 322 321 326 330 328 329 328 326 329 328 326 327 326 324
287 288 289 290 292 294 294 295 297 299 301 319 325 322 320 317 316 315 312 313 313 317 319 321 320 321 325 325 322 318 319 324 329 329 326 328 326 327 328 327 325 326 324
284 285 287 288 290 293 295 296 297 299 303 307 324 322 323 321 320 318 315 312 311 315 316 319 320 320 323 325 323 316 316 320 324 328 328 327 329 327 328 328 325 324 324
283 284 285 286 287 290 293 294 296 299 302 304 324 323 323 323 322 320 317 313 310 312 314 315 319 320 320 325 322 312 319 317 319 324 329 327 327 325 326 328 327 326 326
283 284 284 285 285 287 290 292 293 296 300 302 324 324 323 323 323 322 321 317 313 308 309 315 314 320 320 321 321 321 320 314 317 319 322 323 322 322 322 323 324 323 323
283 283 284 285 286 287 289 293 294 297 299 301 324 323 322 322 322 322 321 318 317 313 309 316 316 318 320 320 316 323 321 311 314 318 319 318 318 319 319 321 321 321 320
283 284 284 286 286 287 289 291 294 297 299 300 323 322 321 322 321 321 321 319 318 317 312 315 317 318 318 318 318 321 321 320 317 315 317 317 317 317 317 317 318 318 319
283 283 284 285 286 288 290 292 295 299 300 302 321 321 321 321 320 320 320 318 318 318 315 313 316 316 316 318 318 317 319 322 321 314 315 316 316 317 317 316 315 316 316
283 284 285 286 287 288 289 294 297 299 301 308 322 321 320 319 318 318 318 318 318 317 317 314 313 316 316 317 316 316 317 318 320 312 315 314 315 315 315 315 314 314 313
283 285 287 288 289 291 295 298 299 301 303 322 322 322 321 319 318 318 318 318 318 317 315 312 311 313 313 315 316 313 312 315 314 317 315 315 315 313 314 314 313 311 310
283 285 288 289 293 296 298 299 302 305 320 320 321 321 321 318 312 316 319 317 317 316 314 312 310 311 311 312 311 314 312 313 314 316 316 316 316 316 314 312 311 308 309
282 283 283 286 289 293 296 299 301 316 318 319 319 320 320 309 310 311 310 311 316 315 313 312 310 309 310 311 313 312 312 310 308 315 313 313 316 315 316 317 313 311 309
281 281 282 283 286 290 295 299 304 317 316 317 318 318 318 317 312 315 309 308 309 309 312 314 312 311 311 312 313 311 311 311 309 312 314 310 316 313 317 317 311 310 309
280 280 281 282 285 288 293 295 298 306 315 316 317 316 315 315 314 315 315 314 314 314 313 314 316 315 315 315 314 313 312 312 312 313 315 308 314 313 315 316 310 310 310
279 280 281 281 283 285 292 292 291 296 299 299 302 301 316 315 309 308 314 312 312 313 308 307 309 309 308 309 313 313 310 309 307 309 313 310 311 312 314 314 315 308 309
279 280 281 281 283 283 290 290 288 288 290 293 294 294 295 297 300 307 313 312 310 311 311 310 310 307 307 309 307 314 313 309 307 306 311 310 308 310 309 313 314 313 311
Wind_Speed
8 8 7 7 7 8 8 7 9 8 10 11 12 13 10 9 8 3 5 8 6 9 10 6 7 9 11 10 9 11 13 11 10 10 10 9 10 11 14 15 15 16 17
8 8 8 8 8 8 11 6 8 10 10 9 12 14 12 8 9 7 6 6 9 5 9 5 5 7 9 8 8 11 13 13 10 10 9 9 9 10 13 14 15 15 16
10 11 7 7 9 9 12 11 9 8 9 7 13 12 10 11 8 9 10 8 8 7 9 10 8 8 7 8 7 10 13 12 9 8 8 8 8 10 13 13 14 14 15
12 11 8 8 7 9 10 12 10 10 9 8 10 10 9 9 10 11 8 9 8 6 7 8 7 9 10 9 8 9 12 12 10 8 8 7 7 10 12 11 12 13 13
13 10 10 8 10 8 9 10 12 11 13 11 9 10 9 9 10 9 9 8 10 8 6 9 6 6 10 11 12 10 14 14 11 8 8 7 7 11 9 9 10 12 11
14 12 10 12 9 9 9 12 14 11 10 10 9 9 8 9 8 8 10 7 7 7 5 8 6 5 8 11 13 11 13 13 13 11 7 6 10 10 10 10 10 11 11
14 14 11 12 10 9 11 13 13 12 12 9 6 6 5 8 10 8 8 9 9 9 7 5 7 7 5 8 11 9 13 14 14 12 10 7 11 11 8 11 11 12 13
14 14 14 12 12 10 12 13 16 12 13 12 9 5 4 2 3 8 7 8 10 9 9 9 6 9 8 6 6 10 12 14 14 10 12 11 10 9 9 9 10 13 13
14 15 16 14 14 12 11 13 13 14 13 14 15 8 5 3 7 3 9 8 10 9 8 10 9 7 6 9 8 6 9 11 12 10 10 12 13 11 11 10 13 14 14
16 16 16 17 16 12 14 13 14 16 16 16 15 14 14 9 9 6 3 8 8 11 11 8 8 10 6 5 9 9 10 8 12 14 12 12 11 10 14 11 10 10 10
17 17 17 17 17 13 15 15 16 16 13 16 15 16 12 9 14 7 7 7 7 11 10 10 8 8 8 7 8 9 12 12 13 15 15 14 13 11 10 11 10 12 10
11 16 17 16 17 16 16 15 15 20 22 18 18 18 15 14 13 10 10 13 11 8 8 8 9 8 9 7 6 14 13 12 13 15 16 18 15 14 12 13 11 11 13
12 15 16 16 15 17 17 16 17 16 20 18 24 18 17 17 14 13 11 12 8 7 5 5 7 9 9 8 6 10 15 13 10 11 16 16 16 14 13 15 14 13 13
14 17 17 19 20 19 17 15 14 15 18 19 26 21 18 16 13 13 13 14 11 8 9 9 6 9 8 9 10 12 10 14 13 11 14 17 12 12 12 13 13 13 13
15 18 20 20 22 22 20 17 15 20 16 20 20 24 19 15 13 13 12 15 16 10 12 11 7 10 10 7 11 10 10 13 14 13 12 9 13 12 12 12 13 12 10
19 19 20 21 21 21 21 19 15 20 18 15 22 23 20 16 15 13 13 14 13 12 9 10 10 12 11 10 11 13 13 13 14 14 12 11 12 14 14 13 12 12 13
18 19 21 21 21 21 20 20 19 17 22 23 23 24 22 18 13 12 12 13 12 11 9 11 10 11 14 12 10 12 12 11 10 14 14 12 11 11 13 13 15 14 12
17 19 20 21 21 20 21 23 22 22 19 27 24 23 23 15 18 16 13 14 12 12 8 15 12 10 14 14 12 13 10 10 10 15 14 13 13 12 13 12 13 14 15
17 18 19 20 20 20 23 21 18 19 24 30 23 23 23 21 19 15 15 14 13 10 9 9 10 10 9 11 11 11 11 11 10 13 19 16 16 15 14 16 15 15 15
16 14 14 17 20 24 22 17 15 24 33 23 21 23 23 23 23 22 17 18 15 12 11 10 10 11 11 12 11 11 11 9 9 10 10 13 15 14 15 15 16 16 16
13 12 9 10 8 6 5 7 19 26 20 17 18 21 21 24 26 23 15 17 18 14 12 11 10 10 10 10 13 11 10 9 10 9 9 9 7 10 10 14 12 17 18
12 11 12 11 11 10 16 20 17 12 11 14 16 19 20 22 22 23 19 20 20 19 17 12 11 11 14 13 11 11 11 10 10 10 11 12 11 11 11 11 18 17 19
14 15 17 16 11 11 14 6 18 11 11 11 11 12 13 14 20 20 17 18 18 19 19 19 16 14 14 15 13 14 13 12 12 7 13 13 11 12 12 12 19 22 20
16 15 16 16 14 13 20 16 15 6 9 12 11 10 8 12 17 19 18 16 15 16 15 13 15 16 15 16 17 17 18 17 9 8 13 12 11 11 10 11 18 22 25
13 13 14 15 15 14 31 28 20 11 13 15 15 14 4 11 15 19 16 17 15 14 12 13 13 13 14 19 16 10 10 9 8 8 10 7 6 9 9 10 10 20 22
11 11 14 17 24 17 31 36 24 10 14 10 10 14 23 13 6 22 18 16 17 14 12 10 7 5 7 11 20 15 12 12 10 6 7 10 6 5 5 5 8 8 11
Wind_Direction
319 321 319 311 305 308 277 197 186 189 208 213 191 211 205 199 182 175 133 143 172 168 170 140 118 126 112 112 124 127 118 109 105 99 94 88 81 89 94 89 86 86 83
310 305 307 309 306 300 305 215 203 186 190 213 204 205 204 195 183 119 131 139 131 146 158 155 152 125 132 119 130 137 127 116 110 107 102 98 89 92 98 97 92 88 86
302 302 294 294 297 302 295 262 210 189 165 229 214 201 196 191 191 162 154 157 156 172 172 179 197 187 137 145 142 147 135 118 120 118 115 110 104 102 96 96 99 93 88
297 297 296 288 294 302 300 298 211 189 175 216 203 204 188 182 194 167 176 165 162 180 189 184 215 208 195 173 169 162 143 133 130 129 126 129 132 123 105 102 100 100 97
297 292 289 288 290 291 294 288 237 204 196 177 222 208 180 182 192 172 179 175 167 192 171 171 218 215 209 185 183 168 155 141 137 138 138 159 132 122 121 122 113 112 106
296 293 287 286 286 288 277 281 288 192 188 181 177 217 183 181 186 179 170 178 178 185 169 154 137 172 166 177 185 174 161 150 140 143 151 152 147 147 139 130 142 126 115
289 287 285 282 276 274 280 280 288 214 184 164 157 207 197 189 183 183 179 176 168 167 179 183 157 168 185 174 156 158 170 159 150 156 153 153 136 132 125 140 139 136 130
279 276 272 269 269 268 266 261 270 284 181 176 165 159 193 356 235 183 190 179 168 170 183 178 182 175 166 165 180 163 155 165 152 152 182 173 164 154 147 145 143 150 128
289 285 282 281 276 274 267 269 279 281 204 179 174 149 157 181 150 234 199 184 180 172 187 179 180 198 200 172 162 174 169 176 178 170 151 160 177 160 159 157 126 113 117
282 278 273 269 268 266 263 263 259 261 254 185 187 197 176 150 181 172 233 204 186 181 190 185 194 188 206 158 164 172 168 188 190 180 171 156 130 178 148 136 144 135 120
280 274 270 270 266 260 258 257 267 263 289 185 186 179 178 177 181 168 186 180 205 186 199 184 182 186 190 186 174 169 172 186 195 194 191 183 176 175 167 152 161 153 169
280 274 271 268 267 262 255 253 252 253 259 253 186 181 182 176 185 174 173 181 181 200 191 194 189 190 178 186 198 154 170 176 194 202 195 196 190 191 181 175 176 169 152
277 272 270 266 263 262 256 253 257 253 258 278 189 187 185 187 189 172 175 168 169 180 190 232 194 197 176 177 182 163 172 177 205 198 197 191 198 194 185 193 185 186 178
271 271 269 266 264 266 265 262 258 258 254 265 192 187 187 190 187 181 173 163 167 181 193 191 211 190 198 175 178 172 178 184 193 200 213 189 189 183 184 187 184 184 181
268 265 262 258 260 260 258 259 255 267 266 262 215 184 185 187 188 187 185 174 163 175 196 192 172 206 182 188 172 181 180 189 189 194 205 213 181 183 193 187 178 178 186
267 264 261 257 256 257 256 249 244 248 250 261 217 180 184 181 178 188 182 178 178 169 185 192 193 180 185 187 173 184 192 173 190 191 199 199 195 184 183 182 186 180 181
272 265 260 257 254 250 247 251 256 256 260 264 194 177 176 172 173 179 182 178 175 177 165 187 188 176 189 188 176 189 183 184 191 196 195 193 186 184 188 186 182 184 183
273 265 259 255 252 249 250 237 228 233 242 251 179 178 173 170 172 182 188 179 187 177 177 169 179 179 184 190 184 188 197 186 193 194 195 189 188 194 192 198 194 192 190
276 265 254 248 246 246 247 241 250 251 243 249 170 171 174 171 172 177 189 183 190 178 173 158 166 178 178 181 185 177 202 191 194 176 197 194 191 195 197 202 198 198 195
294 282 263 251 244 238 232 231 241 251 251 189 175 176 175 178 179 178 185 187 189 182 171 160 163 169 178 181 184 181 195 199 197 189 194 202 202 198 199 202 200 203 200
308 308 307 287 305 281 233 244 234 246 177 173 175 180 179 182 183 183 182 185 184 184 182 165 162 164 174 170 184 187 190 189 199 198 202 200 196 206 207 209 206 200 203
333 334 344 336 342 332 318 269 268 188 150 170 182 184 184 176 178 181 188 188 187 184 183 178 169 173 177 176 183 182 185 185 193 201 205 216 203 217 210 207 207 203 203
343 352 358 350 341 352 320 306 270 144 161 156 164 168 180 180 176 183 194 183 183 189 193 175 178 186 178 176 176 180 187 189 200 182 192 214 207 216 210 209 201 199 198
352 353 349 347 346 359 6 42 37 79 124 127 139 132 143 176 180 184 191 200 199 194 195 190 190 187 184 180 184 182 184 195 199 188 188 213 205 217 209 214 203 196 201
351 344 347 355 355 356 16 32 38 46 63 58 62 47 177 173 186 185 187 193 202 205 190 185 189 184 183 175 181 175 185 181 195 200 187 193 197 213 205 217 213 198 202
353 350 354 357 359 9 18 38 35 28 52 58 58 53 46 46 30 185 195 195 194 202 188 187 194 131 183 181 178 185 181 185 190 196 179 198 198 175 218 204 216 202 209